Vorticity
8 9 9 8 9 7 7 7 4 6 6 7 6 3 4 4 3 1 4 4 2 4 6 -4 12 -10 15 -7 3 14 2 1 10 7 5 7 12 13 9 5 5 12 10 7 9
11 7 8 8 8 8 8 8 6 6 6 6 5 5 5 3 4 4 4 5 3 1 21 7 8 6 5 3 11 14 8 10 6 7 10 0 5 18 16 7 5 11 9 7 10
8 9 6 9 6 9 10 9 8 6 7 5 5 3 6 4 3 7 4 5 5 7 -3 7 3 1 5 9 -9 11 11 7 4 6 13 7 7 -2 -7 11 5 4 12 8 10
6 11 9 7 8 6 8 9 8 6 7 3 3 5 5 6 6 5 6 5 6 6 -9 -4 0 4 -0 2 8 19 3 14 12 15 5 7 11 11 19 8 13 6 4 7 11
6 7 10 9 10 7 6 8 7 5 5 6 3 3 5 6 4 3 5 6 7 5 7 24 4 2 12 -1 3 7 9 11 17 9 20 15 6 9 13 12 11 12 10 8 6
8 6 8 10 9 10 8 7 8 5 5 6 4 2 5 5 5 6 6 6 7 7 4 7 3 -1 3 36 7 9 -2 -25 20 -6 23 -3 2 5 5 7 9 12 14 11 8
7 6 6 8 11 9 8 9 6 4 4 6 5 9 4 5 3 5 4 6 9 6 6 8 4 16 1 -38 22 -29 38 26 -8 22 16 20 11 -1 3 2 4 4 5 8 12
2 8 6 6 8 11 11 11 7 5 5 6 6 5 3 5 6 2 4 5 6 8 5 6 4 6 14 -16 -5 -20 -3 21 -13 16 18 -10 15 8 3 2 3 5 6 6 5
2 6 6 6 6 7 7 7 7 6 5 6 6 6 8 3 5 5 4 6 8 8 7 4 4 -2 9 11 25 -15 2 9 9 -5 -2 7 -10 13 3 8 11 9 8 7 6
4 3 7 6 5 5 6 5 5 6 6 6 7 5 8 6 5 5 4 5 8 5 4 4 9 -7 -11 -6 30 -5 19 7 5 11 -0 1 1 4 16 4 5 8 6 1 9
5 3 5 7 5 6 5 5 5 6 6 6 6 3 8 7 5 5 5 5 8 5 7 -0 -21 -3 2 13 5 -8 -12 4 3 7 16 1 -1 -1 0 8 10 1 8 7 9
5 5 4 6 6 6 6 6 5 8 8 6 6 8 7 6 7 6 6 6 6 5 6 5 12 -5 28 8 29 -11 -5 16 -4 11 5 21 35 3 -1 17 2 10 7 -4 4
5 6 5 5 6 6 6 5 5 4 6 5 6 7 6 6 6 6 7 6 6 7 7 7 9 16 9 7 10 -1 3 12 16 17 1 2 -8 -10 19 -11 18 3 12 -1 5
7 6 6 6 6 7 6 6 6 6 6 7 5 8 8 9 7 6 6 6 6 9 2 12 -6 16 7 9 -7 6 -2 15 15 10 11 8 21 12 34 1 -15 26 -1 12 11
11 7 7 6 6 6 7 7 7 7 1 20 8 6 6 5 9 5 6 6 8 5 8 5 11 5 6 6 11 11 22 24 26 34 1 -4 37 -13 46 10 8 1 8 -2 -4
9 9 7 7 6 6 7 7 7 7 5 10 5 8 7 6 8 6 9 8 9 8 7 7 9 7 8 11 10 12 6 -20 -0 2 14 4 3 12 -2 -16 1 -10 7 7 3
9 9 8 7 7 8 7 6 7 5 -0 26 5 7 7 8 7 6 8 9 9 6 7 4 5 8 10 11 10 0 -21 -7 -4 26 12 -18 9 -1 11 13 24 5 16 6 -2
11 11 7 7 7 7 7 7 6 8 3 17 7 12 6 6 7 7 7 9 7 6 -7 6 5 3 11 7 -5 11 31 2 19 7 -11 11 10 -7 -9 -6 8 8 -5 17 10
8 11 8 8 7 7 7 7 7 -10 40 1 20 9 4 9 7 7 9 9 7 7 18 7 6 7 9 8 -4 10 -6 32 -0 7 25 3 8 12 12 5 2 1 17 11 2
10 7 10 8 7 7 6 7 6 -16 9 -16 20 10 14 8 10 8 8 10 7 6 -0 1 24 2 9 8 8 26 45 -12 4 11 10 5 17 1 -15 -7 3 20 23 22 2
5 7 10 10 8 6 6 8 8 -1 2 -1 -15 11 5 12 11 9 12 8 9 9 7 -14 13 19 12 10 3 -1 -3 -2 13 13 12 11 22 24 -16 11 13 5 51 11 10
7 5 5 10 8 8 7 7 8 8 5 9 7 0 -3 13 9 13 14 9 16 7 10 6 5 -7 10 9 3 9 1 -5 1 12 6 1 0 -3 1 7 -0 2 2 44 11
16 10 6 8 9 9 8 7 7 4 4 9 9 17 -21 21 9 12 1 5 16 10 9 12 6 3 16 2 9 8 4 -0 15 2 7 29 9 22 1 5 16 16 0 11 26
16 16 8 7 8 9 6 9 8 7 9 5 6 8 7 -1 4 12 -2 9 6 10 7 5 2 6 -3 4 7 17 11 9 5 5 6 14 6 7 3 -12 1 13 12 7 20
14 20 15 29 8 8 10 8 4 5 8 9 11 5 5 1 3 11 12 8 11 9 13 9 7 -4 -2 12 11 13 16 7 8 5 5 1 3 13 -6 8 11 4 18 17 -9
19 7 10 7 4 5 8 7 8 5 5 9 10 8 16 10 12 7 18 3 16 18 8 13 15 -16 13 -10 8 5 2 3 0 5 1 4 7 26 -0 4 3 10 15 8 7
3 13 25 15 18 4 3 7 8 9 4 -0 20 6 7 8 6 16 6 15 20 14 13 10 10 -17 10 15 -0 10 3 1 1 5 3 6 16 -12 2 3 5 4 13 14 9
Height
5924 5925 5927 5929 5930 5934 5936 5938 5939 5940 5941 5941 5942 5942 5942 5942 5942 5941 5941 5941 5940 5941 5940 5941 5939 5930 5922 5926 5934 5932 5942 5938 5936 5934 5933 5932 5930 5929 5930 5929 5930 5929 5930 5930 5931
5925 5926 5927 5929 5930 5933 5936 5938 5940 5941 5943 5944 5943 5943 5944 5944 5944 5944 5944 5943 5944 5945 5948 5945 5934 5936 5927 5935 5940 5942 5943 5941 5939 5937 5936 5936 5934 5933 5933 5933 5933 5932 5932 5932 5933
5926 5926 5928 5929 5931 5932 5935 5938 5940 5942 5943 5944 5945 5945 5946 5946 5947 5947 5946 5947 5947 5948 5949 5946 5946 5944 5945 5950 5952 5951 5946 5944 5943 5942 5940 5939 5938 5937 5936 5937 5936 5935 5935 5935 5935
5926 5927 5928 5930 5931 5933 5935 5938 5940 5942 5943 5945 5946 5947 5948 5949 5950 5949 5949 5949 5950 5950 5951 5947 5952 5955 5965 5961 5955 5953 5950 5949 5947 5946 5945 5944 5943 5943 5942 5941 5940 5939 5939 5938 5938
5926 5928 5928 5930 5932 5934 5935 5938 5940 5942 5943 5945 5946 5948 5949 5950 5952 5951 5951 5952 5952 5952 5954 5950 5955 5961 5965 5963 5961 5956 5955 5954 5953 5951 5951 5951 5949 5947 5946 5944 5943 5942 5941 5941 5941
5925 5927 5928 5929 5931 5934 5936 5938 5940 5942 5944 5945 5947 5948 5949 5951 5952 5952 5953 5954 5954 5955 5953 5955 5956 5957 5965 5962 5961 5958 5958 5957 5956 5954 5951 5954 5953 5952 5950 5948 5947 5945 5944 5943 5943
5925 5926 5928 5929 5931 5933 5936 5937 5940 5943 5944 5946 5947 5949 5950 5953 5953 5953 5954 5955 5956 5957 5958 5957 5957 5956 5965 5965 5963 5960 5961 5959 5961 5932 5959 5954 5957 5956 5954 5952 5950 5949 5948 5946 5945
5924 5925 5927 5929 5931 5933 5935 5938 5940 5942 5944 5946 5948 5949 5951 5953 5954 5955 5956 5957 5958 5959 5958 5959 5960 5960 5962 5966 5967 5964 5967 5966 5963 5966 5958 5960 5956 5958 5957 5956 5954 5952 5951 5949 5948
5921 5923 5926 5928 5931 5933 5935 5937 5940 5942 5943 5946 5948 5949 5951 5953 5955 5956 5957 5958 5959 5960 5961 5961 5962 5963 5967 5969 5972 5974 5972 5976 5967 5962 5957 5956 5957 5961 5960 5958 5957 5955 5954 5953 5952
5918 5921 5924 5927 5929 5932 5934 5936 5939 5941 5944 5945 5947 5950 5951 5954 5955 5956 5958 5959 5960 5960 5962 5963 5965 5964 5969 5976 5977 5981 5979 5976 5974 5973 5966 5960 5958 5963 5964 5961 5960 5959 5958 5956 5955
5914 5917 5921 5924 5927 5930 5933 5935 5939 5941 5942 5945 5947 5948 5951 5953 5954 5957 5958 5960 5961 5962 5962 5964 5966 5970 5975 5972 5974 5975 5976 5977 5973 5970 5969 5971 5969 5964 5964 5962 5962 5962 5961 5960 5959
5910 5914 5917 5920 5924 5927 5930 5934 5938 5941 5943 5943 5945 5948 5950 5952 5954 5956 5958 5961 5961 5962 5963 5966 5970 5971 5970 5971 5972 5974 5977 5978 5974 5971 5970 5969 5970 5969 5964 5965 5962 5963 5962 5961 5961
5906 5910 5914 5917 5920 5924 5929 5932 5934 5937 5939 5942 5944 5946 5949 5952 5954 5956 5958 5960 5961 5962 5963 5966 5974 5968 5969 5970 5971 5975 5978 5973 5972 5971 5969 5970 5968 5970 5969 5964 5966 5964 5964 5963 5962
5900 5905 5909 5913 5918 5921 5924 5929 5932 5934 5937 5940 5942 5945 5948 5950 5953 5955 5957 5959 5960 5961 5962 5965 5968 5968 5969 5969 5971 5979 5972 5972 5970 5970 5972 5972 5973 5970 5969 5969 5965 5965 5966 5964 5963
5895 5900 5905 5909 5912 5916 5923 5925 5929 5932 5935 5937 5940 5943 5945 5949 5952 5954 5956 5957 5959 5961 5963 5966 5965 5966 5967 5968 5969 5972 5971 5972 5971 5970 5971 5975 5976 5973 5970 5971 5968 5967 5966 5965 5964
5889 5894 5899 5904 5908 5914 5917 5921 5925 5930 5932 5934 5939 5941 5943 5946 5949 5951 5954 5956 5958 5960 5961 5962 5963 5965 5966 5967 5968 5970 5971 5970 5970 5973 5977 5977 5977 5971 5972 5972 5971 5970 5971 5969 5965
5883 5888 5893 5898 5905 5909 5913 5917 5921 5924 5929 5931 5935 5938 5941 5944 5946 5949 5952 5954 5957 5959 5961 5962 5963 5964 5965 5966 5968 5969 5968 5972 5975 5977 5977 5975 5974 5972 5971 5968 5969 5967 5967 5968 5966
5877 5882 5887 5892 5897 5902 5907 5912 5916 5925 5926 5930 5932 5935 5938 5941 5944 5947 5949 5952 5955 5957 5960 5962 5963 5964 5965 5965 5966 5971 5970 5974 5976 5979 5975 5974 5974 5969 5970 5967 5965 5966 5963 5963 5964
5871 5876 5880 5885 5890 5895 5901 5906 5914 5920 5927 5932 5928 5931 5935 5938 5941 5943 5947 5949 5953 5956 5959 5966 5965 5961 5963 5964 5965 5970 5970 5970 5973 5976 5977 5973 5972 5967 5964 5964 5962 5960 5956 5959 5960
5862 5868 5874 5879 5883 5888 5894 5902 5908 5913 5916 5921 5925 5929 5932 5935 5938 5940 5943 5947 5949 5953 5954 5960 5962 5960 5961 5963 5964 5965 5966 5970 5973 5975 5974 5972 5969 5964 5961 5962 5957 5954 5953 5955 5957
5855 5860 5864 5872 5876 5881 5888 5897 5902 5902 5905 5913 5919 5927 5928 5932 5934 5937 5941 5944 5946 5950 5952 5955 5961 5958 5959 5961 5963 5965 5966 5968 5971 5971 5972 5972 5966 5961 5963 5961 5955 5950 5950 5951 5952
5846 5851 5858 5863 5870 5876 5882 5890 5894 5896 5901 5908 5913 5916 5927 5929 5932 5933 5936 5940 5942 5945 5949 5953 5960 5957 5958 5959 5960 5961 5962 5966 5969 5969 5968 5968 5964 5959 5959 5958 5955 5947 5947 5947 5947
5835 5840 5850 5856 5862 5869 5876 5881 5885 5890 5896 5903 5908 5912 5916 5923 5929 5929 5933 5938 5936 5941 5944 5949 5952 5958 5958 5958 5957 5958 5960 5961 5963 5966 5965 5966 5961 5956 5953 5951 5951 5948 5942 5944 5942
5825 5833 5840 5848 5854 5860 5867 5874 5879 5882 5890 5894 5900 5905 5909 5913 5921 5925 5928 5929 5930 5936 5938 5943 5947 5955 5958 5958 5958 5955 5956 5957 5958 5963 5963 5963 5960 5956 5951 5946 5946 5945 5942 5937 5939
5818 5825 5831 5838 5847 5853 5859 5866 5870 5874 5884 5888 5893 5897 5904 5909 5914 5920 5922 5923 5926 5930 5934 5939 5943 5948 5954 5954 5954 5955 5953 5954 5954 5955 5955 5956 5955 5952 5946 5944 5943 5940 5939 5937 5930
5807 5809 5814 5827 5835 5844 5850 5858 5864 5869 5875 5881 5887 5893 5898 5903 5909 5916 5919 5921 5919 5924 5929 5934 5937 5940 5944 5950 5948 5950 5950 5950 5950 5951 5950 5949 5949 5946 5941 5939 5938 5935 5933 5931 5927
5798 5806 5814 5820 5826 5834 5843 5851 5857 5861 5867 5873 5879 5886 5891 5898 5904 5911 5914 5917 5915 5919 5924 5927 5931 5934 5939 5943 5943 5943 5944 5945 5945 5946 5946 5945 5944 5939 5936 5933 5931 5929 5927 5925 5922